#timestamp,LO_Frequency,Hit,StdDev 
1709319615.1,286047000.3,N
1709319635.8,286047002.4,N
1709319655.7,286046999.9,N
1709319675.5,286047000.2,N
1709319695.4,286047002.4,N
1709319715.2,286047002.8,N
1709319735.0,286047000.0,N
1709319735.9,286047000.0,N
1709319755.8,286046999.9,N
1709319775.6,286047001.2,N
1709319795.4,286047001.0,N
1709319815.3,286047001.2,N
1709319835.1,286046999.2,N
1709319855.9,286046996.5,N
1709319875.7,286046998.6,N
1709319895.5,286046998.9,N
1709319915.4,286046999.1,N
1709319935.2,286046997.8,N
1709319955.0,286046996.9,N
1709319955.9,286046996.9,N
1709319975.8,286046996.7,N
1709319995.6,286046997.7,N
1709320015.5,286046996.7,N
1709320035.3,286046998.9,N
1709320055.1,286046996.5,N
1709320075.9,286046999.1,N
1709320095.7,286046997.8,N
1709320115.5,286046996.8,N
1709320135.4,286046996.7,N
1709320155.2,286046996.7,N
1709320175.1,286046999.1,N
1709320176.0,286046999.1,N
1709320195.8,286046996.5,N
1709320215.6,286046999.5,N
1709320235.5,286046999.6,N
1709320255.3,286046999.5,N
1709320275.2,286046997.5,N
1709320295.9,286046997.6,N
1709320315.7,286046996.6,N
1709320335.6,286046999.2,N
1709320355.4,286046996.6,N
1709320375.2,286046997.0,N
1709320395.1,286046998.9,N
1709320396.0,286046998.9,N
1709320415.8,286046997.0,N
1709320435.7,286046998.8,N
1709320455.5,286046996.5,Y
1709320475.3,286046999.7,P
1709320495.2,286047000.4,N
1709320515.1,286046998.3,N
1709320516.0,286046998.3,N
1709320535.8,286047002.7,N
1709320555.7,286047002.1,N
1709320575.5,286047002.0,N
1709320595.4,286047001.5,N
1709320615.2,286047002.3,N
1709320635.0,286047003.9,N
1709320635.9,286047003.9,N
1709320655.8,286047004.4,N
1709320675.6,286047002.2,N
1709320695.5,286047004.3,N
1709320715.3,286047004.4,N
1709320735.1,286047002.1,N
1709320755.9,286047002.5,N
1709320775.7,286047002.8,N
1709320795.6,286047008.8,Y
1709320815.4,286047010.3,P
1709320835.2,286047008.5,N
1709320855.1,286047009.2,N
1709320856.0,286047009.2,N
1709320875.8,286047006.8,N
1709320895.7,286047004.8,N
1709320915.5,286047005.9,N
1709320935.4,286047005.6,N
1709320955.2,286047003.4,N
1709320975.0,286047001.9,N
1709320975.9,286047001.9,N
1709320995.8,286047004.2,N
1709321015.6,286047004.2,N
1709321035.5,286047004.4,N
1709321055.3,286047001.8,N
1709321075.1,286047002.8,N
1709321095.9,286047000.3,N
1709321115.7,286047000.6,N
1709321135.5,286047001.0,N
1709321155.4,286046998.6,N
1709321175.2,286046999.1,N
1709321195.1,286046996.6,N
1709321196.0,286046996.6,N
1709321215.8,286046995.4,N
1709321235.6,286046996.2,N
1709321255.5,286046994.9,N
1709321275.3,286047001.3,N
1709321295.2,286047007.4,N
1709321315.9,286047005.5,N
1709321335.7,286047003.7,N
1709321355.6,286047002.0,N
1709321375.4,286047002.8,N
1709321395.3,286047000.1,N
1709321415.1,286047000.0,N
1709321435.8,286046998.5,N
1709321455.7,286046999.0,N
1709321475.5,286046997.3,N
1709321495.4,286046995.6,N
1709321515.2,286046996.1,N
1709321535.0,286046996.4,N
1709321535.9,286046996.4,N
1709321555.8,286046993.4,N
1709321575.6,286046994.5,N
1709321595.5,286046994.2,N
1709321615.3,286046994.0,N
1709321635.1,286046993.7,N
1709321655.9,286046993.5,N
1709321675.7,286046991.7,N
1709321695.6,286046992.3,N
1709321715.4,286046993.5,N
1709321735.2,286046993.7,N
1709321755.1,286046994.0,N
1709321756.0,286046994.0,N
1709321775.8,286046994.1,N
1709321795.7,286046994.2,N
1709321815.5,286046993.6,N
1709321835.3,286046994.5,N
1709321855.2,286046994.8,N
1709321875.0,286046992.5,N
1709321875.9,286046992.5,N
1709321895.7,286046992.1,N
1709321915.6,286046992.1,Y
1709321935.4,286046998.3,P
1709321955.3,286047000.9,N
1709321975.1,286046998.5,N
1709321995.8,286046998.2,N
1709322015.7,286046998.1,N
1709322035.5,286047000.4,N
1709322055.4,286046999.9,N
1709322075.2,286047000.3,N
1709322095.0,286046999.9,N
1709322095.9,286046999.9,N
1709322115.8,286047002.7,N
1709322135.6,286047000.0,N
1709322155.4,286047000.9,N
1709322175.3,286047001.1,N
1709322195.1,286046996.5,N
1709322215.9,286046998.4,N
1709322235.7,286046998.5,N
1709322255.5,286047001.1,N
1709322275.4,286047001.1,N
1709322295.2,286046998.6,N
1709322315.0,286046998.4,N
1709322315.9,286046998.4,N
1709322335.8,286046998.7,N
1709322355.6,286046998.9,N
1709322375.5,286046999.6,N
1709322395.3,286046998.6,N
1709322415.1,286046998.1,N
1709322435.9,286046998.4,N
1709322455.7,286046998.3,N
1709322475.5,286047000.8,N
1709322495.4,286046999.4,N
1709322515.2,286046998.6,N
1709322535.1,286047001.1,N
1709322536.0,286047001.1,N
1709322555.8,286047001.0,N
1709322575.6,286046998.1,N
1709322595.5,286046998.7,N
1709322615.3,286047000.8,N
1709322635.1,286047000.4,N
1709322655.9,286047000.2,N
1709322675.7,286047000.8,N
1709322695.6,286047000.3,N
1709322715.4,286047000.6,N
1709322735.2,286047000.6,N
1709322755.1,286047000.3,N
1709322756.0,286047000.3,N
1709322775.8,286046998.5,N
1709322795.6,286046998.4,N
1709322815.5,286046999.3,N
1709322835.3,286046999.5,N
1709322855.2,286046998.5,N
1709322875.0,286046998.7,N
1709322875.9,286046998.7,N
1709322895.8,286046998.2,N
1709322915.6,286046998.4,N
1709322935.4,286046998.1,N
1709322955.3,286046998.3,N
1709322975.1,286046999.3,N
1709322995.8,286046996.9,N
1709323015.7,286046999.0,N
1709323035.5,286046998.7,N
1709323055.4,286046999.4,N
1709323075.2,286046998.6,N
1709323095.0,286047000.8,N
1709323095.9,286047000.8,N
1709323115.8,286046998.6,N
1709323135.6,286047001.1,N
1709323155.4,286046998.2,N
1709323175.3,286047001.1,N
1709323195.1,286047001.2,N
